D3121 Weather Reports


time (UTC)temp
F
wind
direction
speed
knots
gust
knots
rain 1hr
in
rain 24hr
in
rain mn
in
humidity
%
barometer
mb
20211025050020 44 0.0 0.0 0.00 0.00 0.00 83 1021.0
20211025045020 44 0.0 0.0 0.00 0.00 0.00 83 1021.0
20211025044020 44 0.0 0.0 0.00 0.00 0.00 82 1020.9
20211025043020 43 0.0 0.0 0.00 0.00 0.00 82 1021.1
20211025042020 43 0.0 0.0 0.00 0.00 0.00 82 1021.0
20211025041020 43 0.0 0.0 0.00 0.00 0.00 82 1020.7
20211025040021 43 0.0 0.0 0.00 0.00 0.00 83 1020.9
20211025035019 43 0.0 0.0 0.00 0.00 0.00 82 1021.0
20211025034019 43 0.0 0.0 0.00 0.00 0.00 82 1020.8
20211025033019 43 0.0 0.0 0.00 0.00 0.00 83 1020.7
20211025032019 43 0.0 0.0 0.00 0.00 0.00 82 1020.9
20211025031019 43 0.0 0.0 0.00 0.00 0.00 82 1020.9
20211025030019 43 0.0 0.0 0.00 0.00 0.00 82 1020.8
20211025025019 43 0.0 0.0 0.00 0.00 0.00 83 1020.8
20211025024018 43 0.0 0.0 0.00 0.00 0.00 82 1020.5
20211025023019 43 0.0 0.0 0.00 0.00 0.00 81 1020.4
20211025022019 43 0.0 0.0 0.00 0.00 0.00 81 1020.5
20211025021019 43 0.0 0.0 0.00 0.00 0.00 81 1020.4
20211025020019 43 0.0 0.0 0.00 0.00 0.00 79 1020.4
20211025015019 43 0.0 0.0 0.00 0.00 0.00 80 1020.3
20211025014016 43 0.0 0.0 0.00 0.00 0.00 81 1020.2
20211025013019 43 0.0 0.0 0.00 0.00 0.00 80 1020.1
20211025012018 43 0.0 0.0 0.00 0.00 0.00 78 1020.1
20211025011019 44 0.0 0.0 0.00 0.00 0.00 77 1020.0
20211025010018 44 0.0 0.0 0.00 0.00 0.00 79 1020.0
20211025005018 44 0.0 0.0 0.00 0.00 0.00 77 1020.0
20211025004018 44 0.0 0.0 0.00 0.00 0.00 76 1020.1
20211025003016 44 0.0 0.0 0.00 0.00 0.00 78 1020.0
20211025002019 44 0.0 0.0 0.00 0.00 0.00 76 1020.0
20211025001018 44 0.0 0.0 0.00 0.00 0.00 73 1020.1
20211025000019 44 0.0 0.0 0.00 0.00 0.00 74 1020.0
20211024235019 45 0.0 0.0 0.00 0.00 0.00 73 1020.0
20211024234019 45 0.0 0.0 0.00 0.00 0.00 73 1020.0
20211024233019 45 0.0 0.0 0.00 0.00 0.00 71 1019.8
20211024232019 45 0.0 0.0 0.00 0.00 0.00 72 1019.8
20211024231018 45 0.0 0.0 0.00 0.00 0.00 71 1019.8
20211024230019 45 0.0 0.0 0.00 0.00 0.00 64 1019.8
20211024225019 45 0.0 0.0 0.00 0.00 0.00 66 1019.5
20211024224019 45 0.0 0.0 0.00 0.00 0.00 64 1019.5
20211024223018 45 0.0 0.0 0.00 0.00 0.00 64 1019.3
20211024222021 46 0.0 0.0 0.00 0.00 0.00 63 1019.2
20211024221018 47 0.0 0.0 0.00 0.00 0.00 63 1019.1
20211024220018 48 0.0 0.0 0.00 0.00 0.00 60 1019.2
20211024215019 48 0.0 0.0 0.00 0.00 0.00 56 1019.1
20211024214016 49 0.0 0.0 0.00 0.00 0.00 54 1019.2
20211024213018 50 0.0 0.0 0.00 0.00 0.00 52 1019.0
20211024212018 50 0.0 0.0 0.00 0.00 0.00 52 1018.8
20211024211018 51 0.0 0.0 0.00 0.00 0.00 51 1018.9
20211024210019 51 0.0 0.0 0.00 0.00 0.00 50 1018.9
20211024205018 51 0.0 0.0 0.00 0.00 0.00 49 1018.8
20211024204019 52 270 0.9 2.6 0.00 0.00 0.00 50 1018.8
20211024203016 52 293 0.9 3.5 0.00 0.00 0.00 50 1018.7
20211024202018 52 315 0.9 3.5 0.00 0.00 0.00 49 1018.5
20211024201018 52 315 0.9 1.7 0.00 0.00 0.00 48 1018.5
20211024200019 52 315 0.9 1.7 0.00 0.00 0.00 48 1018.4
20211024195018 53 293 1.7 3.5 0.00 0.00 0.00 48 1018.5
20211024194019 53 23 0.9 4.3 0.00 0.00 0.00 49 1018.5
20211024193018 52 293 0.9 3.5 0.00 0.00 0.00 51 1018.4
20211024192016 52 338 1.7 7.0 0.00 0.00 0.00 51 1018.5
20211024191018 52 338 1.7 3.5 0.00 0.00 0.00 50 1018.4
20211024190018 51 0 7.0 13.0 0.00 0.00 0.00 52 1018.2
20211024185016 51 338 3.5 6.1 0.00 0.00 0.00 52 1018.3
20211024184018 51 293 4.3 8.7 0.00 0.00 0.00 51 1018.2
20211024183018 51 338 3.5 7.8 0.00 0.00 0.00 53 1018.3
20211024182018 50 0 5.2 7.0 0.00 0.00 0.00 53 1018.2
20211024181016 50 0 6.1 8.7 0.00 0.00 0.00 55 1018.4
20211024180019 50 338 1.7 3.5 0.00 0.00 0.00 54 1018.7
20211024175018 49 338 1.7 4.3 0.00 0.00 0.00 54 1018.6
20211024174016 49 0 7.0 9.6 0.00 0.00 0.00 53 1018.7
20211024173019 48 0 7.8 9.6 0.00 0.00 0.00 57 1018.9
20211024172018 48 0 5.2 7.0 0.00 0.00 0.00 55 1019.2
20211024171018 48 0 7.0 8.7 0.00 0.00 0.00 57 1019.0
20211024170015 48 0 7.0 8.7 0.00 0.00 0.00 54 1019.2
20211024165018 47 270 0.9 3.5 0.00 0.00 0.00 55 1019.2
20211024164018 47 0 7.0 11.3 0.00 0.00 0.00 56 1019.1
20211024163018 47 293 3.5 6.1 0.00 0.00 0.00 54 1018.9
20211024162018 47 338 3.5 5.2 0.00 0.00 0.00 55 1019.1
20211024161018 47 293 4.3 9.6 0.00 0.00 0.00 57 1019.4
20211024160018 46 0 3.5 7.0 0.00 0.00 0.00 57 1019.2
20211024155015 46 23 4.3 9.6 0.00 0.00 0.00 59 1019.4
20211024154018 45 0 4.3 8.7 0.00 0.00 0.00 59 1019.5
20211024153018 45 293 3.5 5.2 0.00 0.00 0.00 58 1019.5
20211024152018 45 0 7.0 10.4 0.00 0.00 0.00 59 1019.5
20211024151018 45 315 3.5 6.1 0.00 0.00 0.00 61 1019.4
20211024150018 44 338 7.0 10.4 0.00 0.00 0.00 60 1019.4
20211024145018 45 315 3.5 10.4 0.00 0.00 0.00 60 1019.4
20211024144015 44 0 4.3 7.8 0.00 0.00 0.00 62 1019.4
20211024143018 43 315 4.3 7.8 0.00 0.00 0.00 63 1019.4
20211024142018 44 0 7.8 12.2 0.00 0.00 0.00 63 1019.6
20211024141018 43 315 3.5 9.6 0.00 0.00 0.00 64 1019.6
20211024140018 43 0 6.1 8.7 0.00 0.00 0.00 64 1019.6
20211024135018 43 0 6.1 13.0 0.00 0.00 0.00 65 1019.7
20211024134018 43 315 1.7 3.5 0.00 0.00 0.00 68 1019.6
20211024133015 42 0 1.7 3.5 0.00 0.00 0.00 71 1019.5
20211024132022 42 293 1.7 3.5 0.00 0.00 0.00 71 1019.6
20211024131015 42 293 1.7 2.6 0.00 0.00 0.00 71 1019.5
20211024130018 41 0.0 1.7 0.00 0.00 0.00 73 1019.4
20211024125018 41 315 0.9 1.7 0.00 0.00 0.00 74 1019.2
20211024124018 40 0.0 0.9 0.00 0.00 0.00 75 1019.1
20211024123019 39 0.0 1.7 0.00 0.00 0.00 76 1019.0
20211024122015 39 293 0.9 2.6 0.00 0.00 0.00 78 1018.9
20211024121018 38 0.0 0.0 0.00 0.00 0.00 80 1018.8
20211024120018 37 293 0.9 1.7 0.00 0.00 0.00 83 1018.6
20211024115018 36 0.0 0.9 0.00 0.00 0.00 84 1018.5
20211024114018 35 0.0 0.0 0.00 0.00 0.00 86 1018.3
20211024113018 35 0.0 0.9 0.00 0.00 0.00 85 1018.1
20211024112018 35 0.0 0.9 0.00 0.00 0.00 86 1018.1
20211024111018 35 0.0 0.0 0.00 0.00 0.00 86 1017.8
20211024110018 35 0.0 0.0 0.00 0.00 0.00 86 1017.7
20211024105018 36 0.0 0.0 0.00 0.00 0.00 85 1017.6
20211024104018 36 0.0 0.0 0.00 0.00 0.00 85 1017.6
20211024103018 36 0.0 0.0 0.00 0.00 0.00 84 1017.5
20211024102018 36 0.0 0.0 0.00 0.00 0.00 86 1017.5
20211024101018 36 0.0 0.0 0.00 0.00 0.00 86 1017.2
20211024100018 35 0.0 0.0 0.00 0.00 0.00 86 1017.1
20211024095018 36 0.0 0.0 0.00 0.00 0.00 86 1016.9
20211024094018 36 0.0 0.0 0.00 0.00 0.00 85 1017.1
20211024093018 36 0.0 0.0 0.00 0.00 0.00 85 1017.0
20211024092018 36 0.0 0.0 0.00 0.00 0.00 87 1017.0
20211024091018 36 0.0 0.0 0.00 0.00 0.00 87 1017.1
20211024090018 36 0.0 0.0 0.00 0.00 0.00 87 1016.9
20211024085018 36 0.0 0.0 0.00 0.00 0.00 87 1016.8
20211024084018 37 0.0 0.0 0.00 0.00 0.00 88 1016.6
20211024083020 37 0.0 0.0 0.00 0.00 0.00 87 1016.7
20211024082018 37 0.0 0.0 0.00 0.00 0.00 87 1016.6
20211024081018 37 0.0 0.0 0.00 0.00 0.00 87 1016.5
20211024080018 37 0.0 0.0 0.00 0.00 0.00 86 1016.4
20211024075020 37 0.0 0.0 0.00 0.00 0.00 85 1016.3
20211024074018 38 0.0 0.9 0.00 0.00 0.00 85 1016.2
20211024073020 38 0.0 0.0 0.00 0.00 0.00 86 1016.4
20211024072021 38 293 0.9 1.7 0.00 0.00 0.00 85 1016.2
20211024071020 38 0.0 1.7 0.00 0.00 0.00 84 1016.0
20211024070020 38 0.0 1.7 0.00 0.00 0.00 84 1015.9
20211024065017 38 0.0 0.9 0.00 0.00 0.00 83 1015.8
20211024064020 38 0.0 2.6 0.00 0.00 0.00 82 1015.6
20211024063018 38 0.0 0.0 0.00 0.00 0.00 82 1015.5
20211024062020 39 293 0.9 1.7 0.00 0.00 0.00 82 1015.4
20211024061020 39 0.0 0.0 0.00 0.00 0.00 81 1015.2
20211024060020 39 0.0 1.7 0.00 0.00 0.00 81 1015.1
20211024055020 39 0.0 1.7 0.00 0.00 0.00 80 1014.9
20211024054020 39 293 0.9 2.6 0.00 0.00 0.00 80 1014.8
20211024053020 40 0.0 0.0 0.00 0.00 0.00 79 1014.7
20211024052017 40 0.0 0.0 0.00 0.00 0.00 79 1014.5
20211024051020 40 293 0.9 2.6 0.00 0.00 0.00 78 1014.4